Showing default

OPS 9342 (IDSCS 20), 3285

Orbit data source: Space-Track

OPS 9342 (IDSCS 20), 3285 is a payload satellite owned by SAMSO (US) in GEO that was launched on Thu, 13 Jun 1968 UTC via a TITAN IIIC launch vehicle from the Air Force Eastern Test Range (AFETR). Payload-class satellites include a variety of spacecraft equipped with specific instruments for various scientific and technological missions. These include communications satellites like Starlink; space stations such as the ISS; scientific satellites like the Hubble; Earth observation satellites from companies like Planet Labs, Umbra, and HawkEye 360; GPS; miniature CubeSats for education and research; and military/defense satellites.

Loading next visibility...
Identifier
3285, 1968-050B
Orbit
GEO
Last TLE update
16 hours ago
Origin
Manufacturer
Philco-Ford
Mission
Non-operational Defense Communications
Bus & Motor
IDCSP, Unknown motor
Mass
45 kg wet, 45 kg dry
Launch date (UTC)
1968-06-13 (57 years ago)
Launch vehicle
TITAN IIIC
Launch site
Air Force Eastern Test Range (AFETR)
Object type
Payload
Rocket body
Debris
Shape & HBR
Poly, 0.9 m
Radar Cross Section
0.926 m², Medium (>0.1 m² and < 1m²)

Expand to show TLE details & history

TLE from 16 hours ago
0 OPS 9342 (IDSCS 20)
1 03285U 68050B   25182.51375302 -.00000064  00000-0  00000-0 0  9992
2 03285   6.5206  54.9261 0015541 139.1837  51.7918  1.07818634224382
Epoch: 2025-07-01T12:19Z
TLE epoch observation values (Epoch: 2025-07-01T12:19:48.26Z)
Latitude
-1.26488°
Longitude
141.22669°
Altitude
33,756.575 km
Speed
3.153 km/s
True Right ascension
16h 23m 56s
True Declination
-1° 15' 49"
Sunlit
Object was in daylight at epoch
Visualization orbit readout
Latitude
6.5426°
Longitude
40.13057°
Altitude
33,753.615 km
Speed
3.153 km/s
Apparent Right ascension
09h 12m 00s
Apparent Declination
0° 42' 02"
Sunlit
Object is in daylight
Visualization observer readout
Local Sidereal Time
16:02:27
Azimuth
278.708° WNW
Elevation
-9.184°
Doppler factor
1
Orbital elements
Apogee altitude
33,858.863 km
Perigee altitude
33,733.992 km
Semi-major axis
40,174.565 km
Eccentricity
0.00155
Inclination
6.5206°
RAAN
54.9261°
Arg. of periapsis
139.1837°
True anomaly
Unknown
Mean anomaly
51.7918°
Eccentric anomaly
Unknown
Mean motion
0.26954 °/min
Orbital period
1,335.63 mins
BSTAR
0
Loading historical data...
3285 neighbors
Loading maneuver chart data...
Loading SW <> Apogee altitude chart data...
Loading historical data...
Loading historical data...
Loading historical data...
Loading historical data...
Loading historical data...
Loading historical data...
Loading historical data...

OPS 9342 (IDSCS 20) Visibility forecast

Observer location: undefined°, undefined°

Span
Click to sort rows by Start time (UTC) header in descending order
Start Az.
Max El. time (UTC)
Max El. Az.
Max El.
End time (UTC)
End Az.
100 mins2025-07-03 02:41:03.940Z262.338° W2025-07-03 04:21:03.940Z260.268° W11.076°2025-07-03 04:21:03.940Z260.268° W
|